{"data":{"norad_id":65289,"intl_designator":"2025-184S","name":"STARLINK-34845","alt_names":[],"object_type":"PAYLOAD","status":"ACTIVE","operator":null,"country":"US","launch_date":"2025-08-22","launch_site_code":"AFWTR","launch_vehicle":null,"mission":null,"orbit_class":"UNKNOWN","rcs_meters":null,"size_class":null,"mass_kg":null,"dimensions":null,"purposes":["comms"],"wikipedia_slug":null,"has_3d_model":false,"image_url":null,"decayed_at":null,"tle_current":{"epoch":"2026-09-20T21:26:00.758976Z","epoch_age_seconds":83627,"freshness":"FRESH","line1":"1 65289U 25184S   26263.89306434 -.00004823  00000+0 -14734-3 0  9996","line2":"2 65289  97.2789 311.8384 0000780 187.3706 172.7525 15.33408295 60789","mean_motion":15.33408295,"eccentricity":7.8e-5,"inclination_deg":97.2789,"raan_deg":311.8384,"arg_perigee_deg":187.3706,"mean_anomaly_deg":172.7525,"bstar":-0.00014734,"rev_number":6078,"period_min":93.908452477753,"perigee_km":465.11856934036,"apogee_km":466.1862004844,"semimajor_km":6843.7893849124,"source":"CELESTRAK","updated_at":"2026-09-21T09:00:35.566932Z"}}}